Location: Abyssinia Baptist Church
(32.7840°N, 96.7578°W)
Time: 06:31:03
(UTC+00:00)

SL-4 R/B - Pass Details

Date: 09 July 2022
Orbit: 425 x 653 km, 51.6° (Epoch: 07 August)

Event Time Altitude Azimuth Distance (km) Brightness Sun altitude
Rises 10:49:17 0° 320° (NW) 2,602 5.4 -7.6°
Reaches altitude 10° 10:51:29 10° 327° (NNW) 1,755 4.6 -7.2°
Maximum altitude 10:55:19 43° 40° (NE) 775 3.4 -6.5°
Drops below altitude 10° 10:59:25 10° 113° (ESE) 1,886 5.3 -5.8°
Sets 11:01:51 0° 120° (ESE) 2,823 6.1 -5.4°
